Location: Copper Breaks State Park
(34.1132°N, 99.7492°W)
Time: 15:46:43
(UTC-05:00)

SL-16 R/B - Visible Passes

Search period start: 30 August 2016 00:00
Search period end: 09 September 2016 00:00
Orbit: 985 x 1007 km, 99.3° (Epoch: 30 August)

Date Brightness Start Highest point End Pass type
(mag) Time Alt. Az. Time Alt. Az. Time Alt. Az.
30 Aug 5.1 02:41:37 10° ENE 02:43:06 11° ENE 02:44:36 10° NE visible
30 Aug 2.6 04:26:22 73° N 04:26:22 73° N 04:31:57 10° NNW visible
30 Aug 4.3 06:11:28 11° WNW 06:11:28 11° WNW 06:11:54 10° WNW visible
31 Aug 4.5 03:12:41 20° ENE 03:13:27 21° ENE 03:17:51 10° NNE visible
31 Aug 2.8 04:57:47 47° WNW 04:57:47 47° WNW 05:02:39 10° NNW visible
01 Sep 3.7 03:44:06 37° ENE 03:44:06 37° ENE 03:49:34 10° N visible
01 Sep 3.6 05:29:12 26° WNW 05:29:12 26° WNW 05:32:52 10° NW visible
02 Sep 2.9 04:15:31 59° NNE 04:15:31 59° NNE 04:20:47 10° N visible
02 Sep 4.2 06:00:37 13° WNW 06:00:37 13° WNW 06:02:05 10° WNW visible
03 Sep 4.8 03:01:50 17° ENE 03:02:28 17° ENE 03:06:12 10° NNE visible
03 Sep 2.9 04:46:56 50° NW 04:46:56 50° NW 04:51:36 10° NNW visible
04 Sep 4.1 03:33:16 30° ENE 03:33:16 30° ENE 03:38:12 10° N visible
04 Sep 3.5 05:18:22 29° WNW 05:18:22 29° WNW 05:22:00 10° NNW visible
05 Sep 3.3 04:04:41 48° NE 04:04:41 48° NE 04:09:33 10° N visible
05 Sep 4.1 05:49:47 16° WNW 05:49:47 16° WNW 05:51:42 10° NW visible
06 Sep 5.0 02:51:01 13° ENE 02:51:30 13° ENE 02:54:19 10° NNE visible
06 Sep 3.0 04:36:07 49° NNW 04:36:07 49° NNW 04:40:31 10° NNW visible
07 Sep 4.4 03:22:27 24° ENE 03:22:27 24° ENE 03:26:45 10° NNE visible
07 Sep 3.5 05:07:33 32° NW 05:07:33 32° NW 05:11:05 10° NNW visible
08 Sep 3.7 03:53:53 38° NE 03:53:53 38° NE 03:58:17 10° N visible
08 Sep 4.0 05:38:58 18° WNW 05:38:58 18° WNW 05:41:06 10° NW visible
